QPF
0.00 0.00 0.00 0.00 0.00 0.00 0.00 0.00 0.00 0.00 0.00 0.00 0.00 0.00 0.00 0.00 0.00 0.00 0.00 0.00 0.00 0.00 0.00 0.00 0.00 0.00 0.03 0.06 0.02 0.00 0.00 0.00 0.00 0.00 0.00 0.00 0.00 0.00 0.00 0.00 0.00 0.00 0.00
0.00 0.00 0.00 0.00 0.00 0.00 0.00 0.00 0.00 0.00 0.00 0.00 0.00 0.00 0.00 0.00 0.00 0.00 0.00 0.00 0.00 0.00 0.00 0.00 0.00 0.00 0.01 0.01 0.01 0.00 0.00 0.00 0.00 0.00 0.00 0.00 0.00 0.00 0.00 0.00 0.00 0.00 0.00
0.00 0.00 0.00 0.00 0.00 0.00 0.00 0.00 0.00 0.00 0.00 0.00 0.00 0.01 0.02 0.01 0.00 0.00 0.00 0.00 0.00 0.00 0.00 0.00 0.00 0.00 0.00 0.00 0.00 0.00 0.00 0.00 0.00 0.00 0.00 0.00 0.00 0.00 0.00 0.00 0.00 0.00 0.00
0.00 0.00 0.00 0.00 0.00 0.00 0.00 0.00 0.00 0.00 0.00 0.00 0.00 0.01 0.01 0.00 0.00 0.00 0.00 0.00 0.00 0.00 0.00 0.00 0.00 0.00 0.00 0.00 0.00 0.00 0.00 0.00 0.00 0.00 0.00 0.00 0.00 0.00 0.00 0.00 0.00 0.00 0.00
0.00 0.00 0.00 0.00 0.00 0.00 0.00 0.00 0.00 0.00 0.00 0.00 0.00 0.00 0.00 0.00 0.00 0.00 0.00 0.00 0.00 0.00 0.00 0.00 0.00 0.00 0.00 0.00 0.00 0.00 0.00 0.00 0.00 0.00 0.00 0.00 0.00 0.00 0.00 0.00 0.00 0.00 0.00
0.00 0.00 0.00 0.00 0.00 0.00 0.00 0.00 0.00 0.00 0.00 0.00 0.00 0.00 0.00 0.00 0.00 0.00 0.00 0.00 0.00 0.00 0.00 0.00 0.00 0.00 0.00 0.00 0.00 0.00 0.00 0.00 0.00 0.00 0.00 0.00 0.00 0.00 0.00 0.00 0.00 0.01 0.00
0.00 0.00 0.00 0.00 0.00 0.00 0.00 0.00 0.00 0.00 0.00 0.00 0.00 0.00 0.00 0.00 0.00 0.00 0.00 0.00 0.00 0.00 0.00 0.00 0.00 0.00 0.00 0.00 0.00 0.00 0.00 0.00 0.00 0.00 0.00 0.00 0.00 0.00 0.00 0.00 0.01 0.02 0.03
0.00 0.00 0.00 0.00 0.00 0.00 0.00 0.00 0.00 0.00 0.00 0.00 0.00 0.00 0.00 0.00 0.00 0.00 0.00 0.00 0.00 0.00 0.00 0.00 0.00 0.00 0.00 0.00 0.00 0.00 0.00 0.00 0.00 0.00 0.00 0.00 0.00 0.00 0.00 0.00 0.00 0.00 0.00
0.00 0.00 0.00 0.00 0.00 0.00 0.00 0.00 0.00 0.00 0.00 0.00 0.00 0.00 0.00 0.00 0.00 0.00 0.00 0.00 0.00 0.00 0.00 0.00 0.00 0.00 0.00 0.00 0.00 0.00 0.00 0.00 0.00 0.00 0.00 0.00 0.00 0.00 0.00 0.00 0.00 0.00 0.00
0.00 0.00 0.00 0.00 0.00 0.00 0.00 0.00 0.00 0.00 0.00 0.00 0.00 0.00 0.00 0.00 0.00 0.00 0.00 0.00 0.00 0.00 0.00 0.00 0.00 0.00 0.00 0.00 0.00 0.00 0.00 0.00 0.00 0.00 0.00 0.00 0.00 0.00 0.00 0.00 0.00 0.00 0.00
0.00 0.00 0.00 0.00 0.00 0.00 0.00 0.00 0.00 0.00 0.00 0.00 0.00 0.00 0.00 0.00 0.00 0.00 0.00 0.00 0.00 0.00 0.00 0.00 0.00 0.00 0.00 0.00 0.00 0.00 0.00 0.00 0.00 0.00 0.00 0.00 0.00 0.00 0.00 0.00 0.00 0.00 0.00
0.00 0.00 0.00 0.00 0.00 0.00 0.00 0.00 0.00 0.00 0.00 0.00 0.00 0.00 0.00 0.00 0.00 0.00 0.00 0.00 0.00 0.00 0.00 0.00 0.00 0.00 0.00 0.00 0.00 0.00 0.00 0.00 0.00 0.00 0.00 0.00 0.00 0.00 0.00 0.00 0.00 0.00 0.00
0.00 0.00 0.00 0.00 0.00 0.00 0.00 0.00 0.00 0.00 0.00 0.00 0.00 0.00 0.00 0.00 0.00 0.00 0.00 0.00 0.00 0.00 0.00 0.00 0.00 0.00 0.00 0.00 0.00 0.00 0.00 0.00 0.00 0.00 0.00 0.00 0.00 0.00 0.00 0.00 0.00 0.00 0.00
0.00 0.00 0.00 0.00 0.00 0.00 0.00 0.00 0.00 0.00 0.00 0.00 0.00 0.00 0.00 0.00 0.00 0.00 0.00 0.00 0.00 0.00 0.00 0.00 0.00 0.00 0.00 0.00 0.00 0.00 0.00 0.00 0.00 0.00 0.00 0.00 0.00 0.00 0.00 0.00 0.00 0.00 0.00
0.00 0.00 0.00 0.00 0.00 0.00 0.00 0.00 0.00 0.00 0.00 0.00 0.00 0.00 0.00 0.00 0.00 0.00 0.00 0.00 0.00 0.00 0.00 0.00 0.00 0.00 0.00 0.00 0.00 0.00 0.00 0.00 0.00 0.00 0.00 0.00 0.00 0.00 0.00 0.00 0.00 0.00 0.00
0.00 0.00 0.00 0.00 0.00 0.00 0.00 0.00 0.00 0.00 0.00 0.00 0.00 0.00 0.00 0.00 0.00 0.00 0.00 0.00 0.00 0.00 0.00 0.00 0.00 0.00 0.00 0.00 0.00 0.00 0.00 0.00 0.00 0.00 0.00 0.00 0.00 0.00 0.00 0.00 0.00 0.00 0.00
0.00 0.00 0.00 0.00 0.00 0.00 0.00 0.00 0.00 0.00 0.00 0.00 0.00 0.00 0.00 0.00 0.00 0.00 0.00 0.00 0.00 0.00 0.00 0.00 0.00 0.00 0.00 0.00 0.00 0.00 0.00 0.00 0.00 0.00 0.00 0.00 0.00 0.00 0.00 0.00 0.00 0.00 0.00
0.00 0.00 0.00 0.00 0.00 0.00 0.00 0.00 0.00 0.00 0.01 0.00 0.01 0.01 0.00 0.00 0.00 0.00 0.00 0.00 0.00 0.00 0.00 0.00 0.00 0.00 0.00 0.00 0.00 0.00 0.00 0.00 0.00 0.00 0.00 0.00 0.00 0.00 0.00 0.00 0.00 0.00 0.00
0.00 0.00 0.00 0.00 0.00 0.00 0.00 0.01 0.05 0.02 0.02 0.01 0.01 0.00 0.00 0.00 0.00 0.00 0.00 0.00 0.00 0.00 0.00 0.00 0.00 0.00 0.00 0.00 0.00 0.00 0.00 0.00 0.00 0.00 0.00 0.00 0.00 0.00 0.00 0.00 0.00 0.00 0.00
0.00 0.00 0.00 0.00 0.00 0.00 0.00 0.02 0.10 0.04 0.02 0.00 0.00 0.00 0.00 0.00 0.00 0.00 0.00 0.00 0.00 0.00 0.00 0.00 0.00 0.00 0.00 0.00 0.00 0.00 0.00 0.00 0.00 0.00 0.00 0.00 0.00 0.00 0.00 0.00 0.00 0.00 0.00
0.00 0.00 0.00 0.00 0.00 0.00 0.00 0.01 0.07 0.03 0.01 0.00 0.01 0.00 0.00 0.00 0.00 0.00 0.00 0.00 0.00 0.00 0.00 0.00 0.00 0.00 0.00 0.00 0.00 0.00 0.00 0.00 0.00 0.00 0.00 0.00 0.00 0.00 0.00 0.00 0.00 0.00 0.00
0.00 0.00 0.00 0.00 0.00 0.00 0.00 0.02 0.04 0.08 0.03 0.02 0.02 0.01 0.01 0.00 0.00 0.00 0.00 0.00 0.00 0.00 0.00 0.00 0.00 0.00 0.00 0.00 0.00 0.00 0.00 0.00 0.00 0.00 0.00 0.00 0.00 0.00 0.00 0.00 0.00 0.00 0.00
0.00 0.00 0.00 0.00 0.00 0.00 0.00 0.01 0.01 0.04 0.05 0.02 0.01 0.00 0.00 0.00 0.00 0.00 0.00 0.00 0.00 0.00 0.00 0.00 0.00 0.00 0.00 0.00 0.00 0.00 0.00 0.00 0.00 0.00 0.00 0.00 0.00 0.00 0.00 0.00 0.00 0.00 0.00
0.00 0.00 0.00 0.00 0.00 0.00 0.00 0.00 0.00 0.01 0.03 0.04 0.04 0.03 0.03 0.01 0.00 0.00 0.00 0.00 0.00 0.00 0.00 0.00 0.00 0.00 0.00 0.00 0.00 0.00 0.00 0.00 0.00 0.00 0.00 0.00 0.00 0.00 0.00 0.00 0.00 0.00 0.00
0.00 0.00 0.00 0.00 0.00 0.00 0.00 0.00 0.01 0.00 0.01 0.02 0.03 0.03 0.01 0.00 0.00 0.00 0.00 0.00 0.00 0.00 0.00 0.00 0.00 0.00 0.00 0.00 0.00 0.00 0.00 0.00 0.00 0.00 0.00 0.00 0.00 0.00 0.00 0.00 0.00 0.00 0.00
0.00 0.00 0.00 0.00 0.00 0.00 0.00 0.00 0.00 0.00 0.01 0.01 0.01 0.02 0.02 0.00 0.00 0.00 0.00 0.00 0.00 0.00 0.00 0.00 0.00 0.00 0.00 0.00 0.00 0.00 0.00 0.00 0.00 0.00 0.00 0.00 0.00 0.00 0.00 0.00 0.00 0.00 0.00
MSLP
1012.47 1012.20 1012.49 1012.85 1013.20 1013.49 1013.80 1014.07 1014.32 1014.57 1014.83 1015.11 1015.31 1015.54 1015.81 1016.01 1016.22 1016.39 1016.49 1016.55 1016.61 1016.63 1016.69 1016.65 1016.50 1016.47 1016.49 1016.76 1016.95 1017.09 1017.20 1017.30 1017.38 1017.49 1017.67 1017.67 1017.61 1017.52 1017.64 1017.67 1017.59 1017.51 1017.51
1012.02 1012.32 1012.50 1012.84 1013.16 1013.55 1013.93 1014.28 1014.55 1014.80 1014.96 1015.19 1015.41 1015.61 1015.90 1016.10 1016.26 1016.44 1016.61 1016.78 1016.82 1016.73 1016.82 1016.93 1016.89 1016.82 1016.86 1016.98 1017.08 1017.15 1017.32 1017.37 1017.45 1017.56 1017.74 1017.83 1017.84 1017.60 1017.63 1017.67 1017.60 1017.59 1017.62
1011.90 1012.37 1012.69 1012.91 1013.19 1013.57 1014.02 1014.40 1014.68 1014.92 1015.10 1015.25 1015.43 1015.66 1015.95 1016.19 1016.38 1016.58 1016.72 1016.87 1016.92 1016.99 1017.08 1017.08 1017.07 1017.15 1017.15 1017.28 1017.39 1017.32 1017.41 1017.44 1017.52 1017.60 1017.75 1017.90 1017.95 1017.77 1017.68 1017.73 1017.56 1017.53 1017.47
1011.63 1012.33 1012.69 1013.00 1013.23 1013.51 1013.90 1014.24 1014.61 1014.91 1015.10 1015.33 1015.44 1015.62 1016.05 1016.27 1016.48 1016.71 1016.89 1017.02 1017.10 1017.18 1017.20 1017.26 1017.31 1017.26 1017.30 1017.41 1017.45 1017.48 1017.46 1017.43 1017.54 1017.67 1017.62 1017.71 1017.80 1017.79 1017.74 1017.74 1017.62 1017.43 1017.42
1011.67 1012.26 1012.68 1012.94 1013.20 1013.64 1013.97 1014.24 1014.55 1014.88 1015.06 1015.29 1015.59 1015.83 1016.11 1016.30 1016.56 1016.73 1016.99 1017.17 1017.24 1017.30 1017.31 1017.34 1017.34 1017.45 1017.52 1017.58 1017.57 1017.55 1017.57 1017.56 1017.61 1017.63 1017.63 1017.75 1017.76 1017.70 1017.78 1017.74 1017.71 1017.52 1017.45
1011.63 1012.25 1012.71 1012.95 1013.23 1013.61 1014.00 1014.28 1014.58 1014.82 1015.09 1015.40 1015.62 1015.91 1016.13 1016.30 1016.50 1016.78 1016.99 1017.19 1017.29 1017.35 1017.37 1017.37 1017.51 1017.53 1017.55 1017.64 1017.63 1017.71 1017.59 1017.57 1017.63 1017.60 1017.53 1017.45 1017.75 1017.57 1017.58 1017.52 1017.51 1017.47 1017.29
1011.54 1011.99 1012.50 1012.88 1013.26 1013.69 1013.93 1014.20 1014.53 1014.77 1015.02 1015.36 1015.67 1015.99 1016.14 1016.33 1016.48 1016.69 1016.98 1017.15 1017.21 1017.31 1017.36 1017.37 1017.44 1017.58 1017.61 1017.62 1017.72 1017.76 1017.73 1017.63 1017.61 1017.69 1017.57 1017.42 1017.43 1017.49 1017.48 1017.50 1017.40 1017.31 1017.20
1011.38 1011.91 1012.43 1012.76 1013.13 1013.59 1013.86 1014.11 1014.55 1014.82 1015.02 1015.32 1015.58 1015.86 1016.19 1016.36 1016.45 1016.56 1016.83 1017.08 1017.17 1017.25 1017.32 1017.36 1017.38 1017.53 1017.61 1017.75 1017.79 1017.82 1017.79 1017.84 1017.89 1017.93 1017.69 1017.74 1017.57 1017.48 1017.44 1017.46 1017.58 1017.37 1017.21
1011.07 1011.81 1012.40 1012.79 1013.10 1013.52 1013.85 1014.06 1014.30 1014.65 1015.04 1015.30 1015.68 1015.87 1016.18 1016.30 1016.05 1016.27 1016.75 1017.02 1017.06 1017.18 1017.30 1017.37 1017.48 1017.59 1017.65 1017.74 1017.82 1017.82 1017.82 1017.83 1018.20 1018.11 1017.90 1017.91 1017.64 1017.52 1017.56 1017.59 1017.55 1017.58 1017.60
1011.36 1011.77 1012.15 1012.78 1013.11 1013.55 1013.87 1014.08 1014.36 1014.64 1014.86 1015.24 1015.63 1015.86 1016.09 1016.23 1016.30 1016.51 1016.73 1016.95 1017.17 1017.25 1017.34 1017.42 1017.50 1017.62 1017.72 1017.76 1017.73 1017.83 1017.84 1017.93 1018.07 1018.31 1018.19 1017.93 1017.64 1017.53 1017.64 1017.76 1017.67 1017.77 1017.85
1011.31 1011.67 1012.08 1012.74 1013.13 1013.54 1013.82 1014.10 1014.38 1014.68 1015.00 1015.14 1015.49 1015.88 1016.17 1016.36 1016.49 1016.72 1016.89 1017.08 1017.16 1017.31 1017.50 1017.54 1017.59 1017.66 1017.92 1017.87 1017.93 1017.90 1017.96 1018.15 1018.42 1018.49 1018.31 1017.94 1017.71 1017.75 1018.00 1018.11 1018.04 1018.07 1018.27
1011.14 1011.53 1011.87 1012.39 1012.84 1013.33 1013.56 1014.06 1014.42 1014.72 1015.11 1015.38 1015.59 1015.82 1016.11 1016.45 1016.61 1016.69 1017.01 1017.13 1017.26 1017.32 1017.47 1017.56 1017.67 1017.77 1017.88 1018.03 1018.15 1017.97 1018.14 1018.14 1018.45 1018.53 1018.33 1018.05 1017.84 1018.11 1018.34 1018.57 1018.46 1018.45 1018.66
1010.43 1010.99 1011.51 1011.92 1012.17 1012.72 1013.12 1013.76 1014.28 1014.55 1014.95 1015.35 1015.57 1015.77 1015.98 1016.27 1016.64 1016.87 1017.10 1017.22 1017.40 1017.58 1017.56 1017.69 1017.78 1017.97 1018.02 1017.97 1018.19 1018.15 1018.29 1018.36 1018.66 1018.69 1018.57 1018.23 1018.30 1018.43 1018.77 1018.92 1018.88 1018.82 1019.05
1010.00 1010.15 1010.83 1011.35 1011.82 1012.06 1012.58 1013.10 1013.55 1014.16 1014.58 1014.96 1015.16 1015.51 1015.99 1016.27 1016.36 1016.75 1017.00 1017.19 1017.35 1017.58 1017.79 1017.89 1018.02 1018.09 1018.18 1018.13 1018.28 1018.34 1018.48 1018.63 1018.91 1018.91 1018.93 1018.58 1018.88 1018.86 1019.01 1019.19 1019.34 1019.38 1019.34
1009.73 1009.72 1009.96 1010.57 1011.13 1011.62 1012.04 1012.39 1012.75 1013.44 1013.93 1014.26 1014.56 1014.82 1015.40 1015.86 1016.18 1016.36 1016.69 1016.88 1017.21 1017.38 1017.80 1018.03 1018.16 1018.31 1018.29 1018.28 1018.50 1018.44 1018.59 1018.88 1019.14 1019.18 1019.18 1019.08 1019.33 1019.35 1019.33 1019.43 1019.68 1019.62 1019.69
1008.88 1009.13 1009.35 1009.78 1010.23 1010.96 1011.46 1011.78 1012.12 1012.63 1013.17 1013.62 1014.03 1014.36 1014.76 1015.04 1015.36 1015.96 1016.38 1016.85 1017.13 1017.20 1017.60 1017.86 1018.17 1018.49 1018.61 1018.57 1018.59 1018.63 1018.76 1018.92 1019.20 1019.38 1019.47 1019.43 1019.67 1019.67 1019.58 1019.77 1019.83 1019.91 1019.85
1008.45 1008.36 1008.80 1009.04 1009.60 1010.10 1010.67 1011.01 1011.31 1011.89 1012.61 1012.95 1013.19 1013.62 1014.02 1014.53 1015.19 1015.82 1016.27 1016.82 1017.09 1017.34 1017.63 1017.97 1018.26 1018.48 1018.81 1018.79 1018.96 1018.81 1018.75 1018.86 1019.34 1019.62 1019.68 1019.87 1020.00 1019.91 1019.79 1019.85 1019.89 1019.94 1019.93
1008.15 1008.19 1008.04 1008.37 1008.85 1009.46 1010.09 1010.56 1010.82 1011.12 1011.90 1012.31 1012.65 1012.99 1013.55 1014.10 1014.71 1015.56 1016.12 1016.69 1017.00 1017.47 1017.96 1018.30 1018.57 1018.86 1019.12 1019.20 1019.19 1019.08 1019.02 1018.90 1019.20 1019.58 1019.86 1020.06 1020.16 1020.13 1020.05 1020.08 1020.09 1020.05 1020.06
1007.47 1007.62 1007.99 1007.74 1008.09 1008.48 1009.09 1009.95 1010.45 1010.96 1011.58 1011.95 1012.22 1012.56 1013.35 1014.01 1014.59 1015.22 1015.96 1016.49 1016.87 1017.55 1018.07 1018.41 1018.88 1019.02 1019.39 1019.35 1019.29 1019.17 1019.20 1019.09 1019.13 1019.37 1019.86 1019.98 1020.03 1020.13 1020.24 1020.15 1020.27 1020.33 1020.31
1006.81 1006.95 1007.16 1007.58 1007.45 1007.91 1008.59 1009.26 1010.17 1010.84 1011.41 1011.59 1011.91 1012.30 1013.08 1013.75 1014.33 1014.95 1015.85 1016.44 1016.84 1017.54 1018.14 1018.51 1018.93 1019.28 1019.51 1019.57 1019.43 1019.33 1019.30 1019.24 1019.20 1019.46 1019.72 1019.70 1019.87 1019.97 1020.11 1020.37 1020.55 1020.55 1020.40
1006.52 1006.60 1006.75 1007.01 1007.05 1007.40 1008.34 1009.24 1010.23 1010.72 1011.23 1011.51 1011.87 1012.27 1012.84 1013.62 1014.04 1014.64 1015.38 1016.11 1016.71 1017.28 1017.84 1018.37 1018.97 1019.53 1019.91 1019.76 1019.77 1019.87 1019.77 1019.63 1019.50 1019.45 1019.52 1019.80 1019.85 1019.90 1020.08 1020.36 1020.54 1020.52 1020.50
1006.25 1006.13 1006.30 1006.59 1006.80 1006.65 1007.16 1007.95 1008.98 1010.28 1011.26 1011.29 1011.83 1012.37 1012.67 1013.31 1013.97 1014.50 1015.22 1015.88 1016.67 1017.25 1017.80 1018.31 1018.79 1019.68 1020.12 1020.00 1020.20 1020.55 1020.55 1020.37 1019.95 1019.82 1019.85 1019.94 1020.18 1020.18 1020.24 1020.28 1020.38 1020.39 1020.37
1005.92 1005.75 1005.69 1005.96 1006.35 1006.46 1006.77 1008.01 1009.18 1010.09 1011.30 1012.16 1012.33 1012.40 1012.79 1013.21 1013.81 1014.41 1015.18 1015.50 1016.43 1016.95 1017.71 1018.28 1018.69 1019.28 1020.07 1020.34 1020.22 1020.34 1020.83 1021.21 1021.12 1020.45 1020.32 1020.31 1020.37 1020.60 1020.71 1020.63 1020.42 1020.31 1020.20
1005.46 1005.51 1005.34 1005.37 1005.79 1006.05 1006.54 1007.11 1007.94 1009.01 1010.60 1011.37 1011.96 1012.05 1012.41 1013.16 1013.77 1014.48 1015.30 1015.91 1016.21 1017.03 1017.60 1018.12 1018.71 1019.09 1019.50 1020.25 1020.42 1020.36 1020.58 1020.95 1021.41 1021.44 1020.91 1020.63 1020.67 1020.77 1020.86 1020.67 1020.56 1020.43 1020.27
1005.01 1004.98 1005.05 1005.19 1005.04 1005.34 1006.19 1006.32 1007.34 1008.79 1010.01 1011.12 1012.15 1012.59 1012.65 1013.14 1014.03 1014.52 1015.23 1016.11 1016.56 1017.06 1017.54 1017.98 1018.50 1019.04 1019.35 1019.97 1020.33 1020.64 1020.89 1021.08 1021.31 1021.80 1021.95 1021.41 1020.94 1020.69 1020.70 1020.70 1020.53 1020.33 1020.15
1004.81 1004.96 1004.87 1004.72 1004.67 1004.85 1005.43 1006.20 1006.81 1008.02 1009.58 1011.13 1012.19 1012.65 1012.88 1013.03 1014.12 1014.65 1015.16 1016.02 1016.59 1017.05 1017.45 1018.19 1018.43 1019.01 1019.53 1019.88 1020.29 1020.60 1020.90 1021.27 1021.59 1021.91 1022.28 1021.96 1021.67 1021.00 1020.83 1020.59 1020.48 1020.42 1020.31
Thickness
5760 5764 5761 5759 5757 5756 5753 5751 5750 5748 5747 5745 5744 5742 5740 5738 5736 5734 5733 5732 5731 5731 5730 5729 5731 5731 5731 5728 5727 5725 5723 5723 5722 5721 5719 5718 5718 5718 5716 5716 5717 5717 5716
5764 5760 5759 5757 5755 5752 5749 5747 5746 5744 5743 5742 5740 5739 5737 5735 5733 5732 5730 5728 5727 5728 5727 5725 5725 5725 5725 5724 5723 5722 5720 5720 5720 5718 5716 5715 5714 5714 5713 5713 5713 5713 5712
5761 5757 5755 5754 5752 5749 5746 5743 5742 5740 5739 5738 5737 5735 5733 5731 5729 5727 5726 5724 5723 5723 5723 5723 5722 5721 5721 5719 5717 5718 5717 5717 5716 5714 5713 5711 5711 5710 5711 5710 5711 5710 5710
5759 5754 5752 5751 5749 5747 5744 5741 5738 5736 5735 5733 5733 5732 5728 5727 5725 5722 5721 5720 5719 5719 5719 5718 5717 5717 5717 5715 5714 5714 5714 5714 5712 5710 5712 5709 5708 5707 5707 5706 5706 5708 5707
5756 5752 5749 5748 5746 5743 5741 5739 5736 5733 5731 5730 5727 5726 5724 5722 5720 5718 5716 5715 5715 5714 5714 5714 5714 5712 5711 5710 5710 5710 5709 5709 5709 5708 5709 5708 5706 5704 5703 5702 5701 5703 5703
5754 5748 5745 5744 5742 5739 5736 5735 5733 5731 5728 5726 5724 5721 5719 5718 5715 5713 5712 5711 5710 5710 5710 5710 5708 5708 5708 5706 5706 5704 5706 5706 5705 5705 5705 5704 5702 5701 5700 5699 5698 5698 5700
5751 5747 5743 5741 5738 5735 5734 5732 5730 5728 5725 5722 5720 5717 5716 5714 5713 5711 5708 5707 5707 5707 5706 5706 5705 5704 5704 5703 5702 5701 5701 5703 5703 5703 5700 5700 5699 5698 5696 5694 5696 5695 5696
5748 5742 5739 5738 5736 5732 5731 5730 5726 5724 5722 5720 5717 5715 5712 5711 5710 5709 5707 5705 5704 5703 5703 5703 5703 5701 5700 5698 5698 5698 5698 5698 5697 5696 5696 5694 5692 5692 5692 5690 5689 5691 5691
5746 5741 5737 5734 5732 5729 5727 5726 5724 5721 5718 5716 5712 5711 5708 5708 5710 5708 5705 5702 5703 5702 5700 5700 5698 5697 5697 5695 5695 5695 5694 5694 5691 5690 5688 5687 5685 5686 5684 5684 5684 5684 5682
5740 5738 5735 5730 5729 5726 5723 5721 5718 5716 5715 5712 5709 5707 5705 5704 5703 5701 5701 5699 5697 5697 5696 5695 5695 5693 5692 5692 5692 5691 5690 5689 5688 5683 5682 5682 5681 5681 5677 5677 5678 5677 5676
5734 5733 5730 5726 5724 5721 5719 5717 5715 5713 5710 5709 5706 5703 5700 5699 5698 5696 5695 5693 5692 5691 5690 5690 5689 5689 5686 5687 5686 5686 5685 5685 5681 5679 5677 5678 5678 5676 5671 5670 5670 5670 5667
5727 5728 5727 5724 5721 5718 5716 5713 5711 5709 5706 5704 5702 5699 5697 5695 5693 5692 5689 5688 5687 5687 5685 5684 5684 5683 5682 5681 5681 5681 5680 5681 5676 5673 5672 5671 5673 5668 5665 5662 5663 5662 5659
5723 5725 5725 5723 5720 5716 5713 5710 5707 5705 5703 5699 5697 5696 5694 5692 5689 5687 5685 5683 5682 5680 5681 5679 5678 5676 5676 5677 5674 5675 5672 5673 5670 5667 5664 5664 5663 5661 5657 5655 5654 5654 5650
5721 5722 5722 5721 5718 5717 5713 5709 5706 5702 5699 5697 5695 5692 5689 5688 5687 5685 5683 5679 5678 5674 5673 5672 5670 5669 5668 5669 5667 5666 5665 5665 5661 5659 5655 5657 5652 5651 5649 5647 5644 5643 5642
5717 5720 5720 5719 5716 5713 5712 5708 5707 5701 5699 5696 5693 5692 5687 5685 5684 5682 5679 5677 5674 5671 5667 5665 5664 5662 5661 5660 5657 5657 5656 5655 5651 5650 5648 5646 5642 5640 5640 5638 5634 5634 5632
5717 5719 5721 5717 5715 5711 5709 5708 5706 5702 5697 5695 5693 5690 5686 5685 5684 5679 5675 5671 5668 5667 5664 5662 5658 5656 5654 5652 5651 5649 5647 5646 5644 5641 5638 5636 5632 5631 5630 5627 5626 5624 5623
5714 5716 5717 5720 5713 5711 5708 5708 5705 5698 5694 5694 5692 5689 5687 5684 5679 5673 5670 5666 5663 5660 5657 5654 5652 5649 5645 5644 5641 5640 5640 5638 5635 5631 5630 5626 5623 5621 5621 5619 5617 5615 5614
5712 5712 5714 5718 5715 5710 5706 5703 5702 5697 5691 5693 5690 5687 5685 5682 5676 5669 5666 5661 5657 5653 5648 5645 5642 5639 5635 5633 5632 5632 5631 5630 5628 5625 5620 5618 5615 5614 5612 5609 5607 5605 5604
5710 5712 5707 5712 5714 5713 5708 5700 5698 5693 5689 5688 5687 5684 5680 5675 5670 5666 5661 5656 5652 5646 5640 5637 5632 5630 5626 5625 5625 5624 5622 5622 5619 5617 5613 5611 5609 5607 5603 5600 5596 5595 5593
5710 5708 5708 5704 5711 5712 5707 5699 5691 5689 5684 5683 5681 5679 5675 5670 5666 5662 5655 5649 5645 5639 5633 5629 5624 5620 5617 5615 5616 5615 5613 5613 5611 5609 5605 5603 5600 5598 5595 5590 5586 5583 5581
5700 5700 5701 5699 5703 5705 5702 5693 5681 5680 5679 5678 5676 5673 5670 5664 5661 5656 5651 5644 5639 5634 5628 5623 5616 5611 5605 5605 5605 5602 5601 5601 5601 5601 5598 5594 5591 5588 5583 5579 5576 5573 5571
5693 5696 5695 5694 5695 5700 5701 5700 5687 5677 5671 5673 5668 5665 5664 5658 5652 5650 5645 5639 5632 5626 5620 5616 5610 5601 5596 5594 5592 5587 5586 5586 5588 5588 5585 5583 5578 5575 5572 5568 5564 5561 5560
5687 5690 5693 5692 5690 5692 5694 5685 5677 5671 5663 5657 5657 5657 5653 5650 5646 5642 5636 5632 5625 5620 5612 5607 5602 5597 5588 5584 5583 5582 5576 5573 5566 5573 5572 5569 5565 5561 5556 5554 5551 5549 5547
5681 5683 5687 5688 5686 5685 5685 5683 5680 5676 5664 5655 5652 5650 5647 5641 5639 5634 5627 5621 5619 5612 5605 5601 5595 5589 5584 5577 5574 5572 5567 5563 5557 5555 5556 5555 5551 5547 5542 5540 5538 5535 5533
5672 5674 5677 5678 5681 5681 5677 5679 5675 5667 5656 5648 5639 5637 5637 5633 5628 5624 5618 5611 5608 5604 5599 5594 5588 5582 5577 5570 5565 5560 5556 5551 5546 5540 5535 5535 5536 5534 5531 5527 5524 5522 5520
5661 5661 5663 5668 5673 5674 5672 5669 5669 5662 5649 5635 5628 5626 5625 5625 5617 5614 5610 5604 5599 5595 5591 5584 5580 5574 5567 5562 5556 5551 5546 5540 5534 5528 5522 5520 5521 5523 5518 5514 5510 5507 5504